Regional Weather Roundup
Issued by NWS

Home | Current Version | Previous Version | Text Only | Print | Product List | Glossary On
Versions: 1 2 3 4 5 6 7 8 9 10 11 12 13 14 15 16 17 18 19 20 21 22 23 24 25 26 27 28 29 30 31 32 33 34 35 36 37 38 39 40 41 42 43 44 45 46 47 48 49 50
000
ASUS43 KDTX 231810
RWRMI
MICHIGAN HOURLY REGIONAL WEATHER ROUNDUP
NATIONAL WEATHER SERVICE DETROIT/PONTIAC MI
ISSUED BY NATIONAL WEATHER SERVICE GRAND RAPIDS MI
200 PM EDT WED AUG 23 2017

NOTE: "FAIR" INDICATES FEW OR NO CLOUDS BELOW 12,000 FEET WITH NO
SIGNIFICANT WEATHER AND/OR OBSTRUCTION TO VISIBILITY.

MIZ047>049-052>055-059>063-066>070-074>076-081>083-231900-
SOUTHEAST LOWER MICHIGAN

CITY           SKY/WX    TMP DP  RH WIND       PRES   REMARKS
ADRIAN         PTSUNNY   73  52  47 NW13      29.99S
6HR MIN TEMP:  58; 6HR MAX TEMP:  74;

ALMA           PTSUNNY   71  49  46 NW10      29.96S
ANN ARBOR      MOSUNNY   74  51  44 W10G21    29.96S
BAD AXE        CLOUDY    69  50  51 NW7       29.94S
DETROIT CITY   MOSUNNY   75  51  43 NW10G16   29.95S
6HR MIN TEMP:  60; 6HR MAX TEMP:  75;

DETROIT        PTSUNNY   75  52  44 NW10      29.96S
6HR MIN TEMP:  61; 6HR MAX TEMP:  77;

FLINT          MOSUNNY   69  53  56 NW13      29.96S
6HR MIN TEMP:  57; 6HR MAX TEMP:  72;

GROSSE ILE     CLOUDY    74  53  46 NW7G16    29.95S
6HR MIN TEMP:  61; 6HR MAX TEMP:  75;

HILLSDALE      MOSUNNY   72  52  49 NW12      29.99S
HOWELL         CLOUDY    71  50  47 NW9       29.97S
6HR MIN TEMP:  58; 6HR MAX TEMP:  72;


CITY           SKY/WX    TMP DP  RH WIND       PRES   REMARKS
JACKSON        PTSUNNY   71  51  49 W10       29.98S
6HR MIN TEMP:  57; 6HR MAX TEMP:  73;

LANSING        PTSUNNY   73  49  42 NW9       29.98S
6HR MIN TEMP:  61; 6HR MAX TEMP:  74;

MASON          PTSUNNY   74  51  44 NW9G20    29.98S
MONROE         PTSUNNY   73  55  52 NW8       29.95F
6HR MIN TEMP:  58; 6HR MAX TEMP:  75;

MT. CLEMENS    MOSUNNY   71  54  54 NW12      29.94S
6HR MIN TEMP:  61; 6HR MAX TEMP:  73;

PONTIAC        MOSUNNY   71  51  49 NW13      29.95S
6HR MIN TEMP:  59; 6HR MAX TEMP:  72;

PORT HOPE        N/A     66  54  65 NW6       29.92S
6HR MIN TEMP:  59; 6HR MAX TEMP:  68;

PORT HURON     PTSUNNY   72  54  53 W3        29.94S
TRI CITIES     MOSUNNY   72  55  55 W12       29.95F
6HR MIN TEMP:  57; 6HR MAX TEMP:  72;

YPSILANTI      CLOUDY    77  55  46 NW13G18   29.96S
6HR MIN TEMP:  60; 6HR MAX TEMP:  78;

$$
MIZ043>046-050>051-056>058-064>065-071>073-077>080-231900-
SOUTHWEST LOWER MICHIGAN

CITY           SKY/WX    TMP DP  RH WIND       PRES   REMARKS
BATTLE CREEK   PTSUNNY   74  52  46 NW15      30.00S
6HR MIN TEMP:  59; 6HR MAX TEMP:  74;

BENTON HARBOR  MOSUNNY   72  53  51 NW10G20   30.04R
6HR MIN TEMP:  68; 6HR MAX TEMP:  73;

BIG RAPIDS     PTSUNNY   66  51  57 NW9G16    29.98R
6HR MIN TEMP:  56; 6HR MAX TEMP:  69;

COLDWATER      PTSUNNY   75  48  38 W15       30.00S
6HR MIN TEMP:  57; 6HR MAX TEMP:  75;

HOLLAND        MOSUNNY   71  56  58 NW8G22    30.02S
6HR MIN TEMP:  67; 6HR MAX TEMP:  71;

GRAND RAPIDS   MOSUNNY   72  51  47 W10       29.98S
6HR MIN TEMP:  60; 6HR MAX TEMP:  74;

KALAMAZOO      MOSUNNY   74  50  42 W15G21    30.00S
6HR MIN TEMP:  60; 6HR MAX TEMP:  75;

MARSHALL       CLOUDY    74  51  43 NW5G18    29.98S
6HR MIN TEMP:  58; 6HR MAX TEMP:  75;

MOUNT PLEASANT MOSUNNY   71  51  49 NW10G16   29.96S
6HR MIN TEMP:  59; 6HR MAX TEMP:  72;

MUSKEGON       PTSUNNY   71  51  49 W15G22    30.01R
6HR MIN TEMP:  66; 6HR MAX TEMP:  72;

STURGIS        PTSUNNY   72  52  49 NW12      30.00S
6HR MIN TEMP:  56; 6HR MAX TEMP:  74;

$$
MIZ016>042-231900-
NORTHERN LOWER MICHIGAN

CITY           SKY/WX    TMP DP  RH WIND       PRES   REMARKS
ALPENA         PTSUNNY   66  48  52 W10G21    29.92S
6HR MIN TEMP:  57; 6HR MAX TEMP:  68;

BEAVER ISLAND  CLOUDY    63  48  57 NW9       29.98S
6HR MIN TEMP:  59; 6HR MAX TEMP:  64;

BELLAIRE       PTSUNNY   64  47  54 W6        29.98R
6HR MIN TEMP:  59; 6HR MAX TEMP:  65;

CADILLAC       PTSUNNY   67  47  49 N9G20     29.98S
CHARLEVOIX     PTSUNNY   64  49  58 NW14G24   30.00S
6HR MIN TEMP:  59; 6HR MAX TEMP:  65;

GAYLORD        PTSUNNY   61  45  55 NW8       29.97R
6HR MIN TEMP:  55; 6HR MAX TEMP:  63;

HOUGHTON LAKE  PTSUNNY   65  48  54 NW15G25   29.97R
6HR MIN TEMP:  58; 6HR MAX TEMP:  66;

MANISTEE       PTSUNNY   67  52  58 NW13      30.00S
OSCODA         PTSUNNY   69  47  45 NW14G28   29.91S
6HR MIN TEMP:  58; 6HR MAX TEMP:  72;

PELLSTON       CLOUDY    63  50  62 NW16G24   29.96R
6HR MIN TEMP:  57; 6HR MAX TEMP:  65;

TRAVERSE CITY  PTSUNNY   67  47  48 NW12G22   29.98R
6HR MIN TEMP:  61; 6HR MAX TEMP:  67; 6HR PCP: TRACE;

LUDINGTON      MOSUNNY   67  51  55 NW9       30.01R
6HR MIN TEMP:  61; 6HR MAX TEMP:  68;

$$
MIZ007>008-015-231900-
EASTERN UPPER MICHIGAN

CITY           SKY/WX    TMP DP  RH WIND       PRES   REMARKS
KINROSS        CLOUDY    57  49  74 NW13G21   29.94R
6HR MIN TEMP:  55; 6HR MAX TEMP:  59;

MACKINAC ISLAN CLOUDY    60  51  70 NW12G18   29.94R
6HR MIN TEMP:  57; 6HR MAX TEMP:  62;

NEWBERRY       CLOUDY    55  54  97 NW12G17   29.97R
6HR MIN TEMP:  53; 6HR MAX TEMP:  58;

S. S. MARIE    CLOUDY    58  50  75 W15G23    29.92S
6HR MIN TEMP:  57; 6HR MAX TEMP:  60; 6HR PCP: TRACE;

$$
MIZ004>006-011>014-085-231900-
CENTRAL UPPER MICHIGAN

CITY           SKY/WX    TMP DP  RH WIND       PRES   REMARKS
MANISTIQUE     CLOUDY    60  43  52 NW14G24   29.99R
6HR MIN TEMP:  52; 6HR MAX TEMP:  63;

ESCANABA       MOSUNNY   66  45  46 NW8G18    29.98S
6HR MIN TEMP:  52; 6HR MAX TEMP:  66; 6HR PCP:  0.02;

MENOMINEE      PTSUNNY   67  49  52 VRB7G17   30.01S
6HR MIN TEMP:  54; 6HR MAX TEMP:  68;

SAWYER-GWINN   MOSUNNY   61  43  51 NW14G21   30.01S
$$
MIZ001>003-009>011-084-231900-
WESTERN UPPER MICHIGAN

CITY           SKY/WX    TMP DP  RH WIND       PRES   REMARKS
IRON MOUNTAIN  MOSUNNY   65  44  46 NW14      30.00S
6HR MIN TEMP:  53; 6HR MAX TEMP:  66;

HOUGHTON       SUNNY     58  41  53 NW16G25   30.03S
6HR MIN TEMP:  53; 6HR MAX TEMP:  59;

COPPER HARBOR    N/A     56  44  64 N17       30.02R
6HR MIN TEMP:  55; 6HR MAX TEMP:  58;

IRONWOOD       PTSUNNY   57  45  62 NW12G21   30.09R
6HR MIN TEMP:  55; 6HR MAX TEMP:  59; 6HR PCP: TRACE;

$$

ABBREVIATIONS USED IN REMARKS
   TC - TEMPERATURE IN CELSIUS
  WCI - WIND CHILL INDEX
   HX - HEAT INDEX
  VSB - VISIBILITY





USA.gov is the U.S. government's official web portal to all federal, state and local government web resources and services.